Regional Weather Roundup
Issued by NWS Green Bay, WI

Home | Current Version | Previous Version | Graphics & Text | Print | Product List | Glossary Off
Versions: 1 2 3 4 5 6 7 8 9 10 11 12 13 14 15 16 17 18 19 20 21 22 23 24 25 26 27 28 29 30 31 32 33 34 35 36 37 38 39 40 41 42 43 44 45 46 47 48 49 50

000
ASUS43 KGRB 161110
RWRGRB

NORTH-CENTRAL AND NORTHEAST WISCONSIN REGIONAL WEATHER ROUNDUP
NATIONAL WEATHER SERVICE GREEN BAY WI
600 AM CDT WED APR 16 2014

WIZ005-009-010>012-018-019-161200-
NORTH CENTRAL WISCONSIN

CITY           SKY/WX    TMP DP  RH WIND       PRES   REMARKS
IRONWOOD       CLOUDY    21   3  45 SE5       30.13R
MANITOWISH WTR CLOUDY    17   6  60 CALM      30.14R
ARBOR VITAE    CLOUDY    18   7  61 SE5       30.14S
EAGLE RIVER    MOCLDY    11   6  81 CALM      30.16R
LAND O LAKES   CLOUDY     3   0  85 CALM      30.17R
RHINELANDER    CLOUDY    14   9  80 E3        30.15S
PHILLIPS       CLOUDY    23  14  68 SE3       30.13R
ANTIGO         CLOUDY    20  15  81 S6        30.17R
TOMAHAWK       CLOUDY    21  14  75 CALM      30.15R
MERRILL        CLOUDY    24  16  72 CALM      30.17R
$$

WIZ013-073-161200-
NORTHEAST WISCONSIN

CITY           SKY/WX    TMP DP  RH WIND       PRES   REMARKS
IRON MOUNTAIN  PTCLDY     7   3  84 CALM      30.20R
MARINETTE      CLEAR     18  16  93 CALM      30.24S
OCONTO         CLEAR     16  15  93 CALM      30.25S
$$

WIZ017-030-035>037-045-161200-
CENTRAL WISCONSIN

CITY           SKY/WX    TMP DP  RH WIND       PRES   REMARKS
MEDFORD        CLOUDY    26  17  70 SE7       30.13R
WAUSAU         CLOUDY    25  15  66 SE6       30.16R
MOSINEE        CLOUDY    25  18  74 SE5       30.18R
MARSHFIELD     CLOUDY    26  21  81 SE10      30.14S
WISC RAPIDS    CLOUDY    27  18  69 SE8       30.18S
STEVENS POINT  CLOUDY    24  16  73 SE6       30.20R
WAUPACA        CLOUDY    28  21  74 SE3       30.22R
SHAWANO        CLEAR     22  19  89 CALM      30.23R
CLINTONVILLE   PTCLDY    23  21  93 CALM      30.22R
$$

WIZ038-039-048-051-161200-
FOX VALLEY

CITY           SKY/WX    TMP DP  RH WIND       PRES   REMARKS
NWS GREEN BAY  CLEAR     24  20  84 CALM      30.24S
APPLETON       MOCLDY    27  19  74 SE7       30.22S
OSHKOSH        CLOUDY    30  21  69 SE8       30.22R
FOND DU LAC    CLOUDY    30  25  81 SE10      30.22R
$$

WIZ022-050-052-161200-
EAST CENTRAL WISCONSIN

CITY           SKY/WX    TMP DP  RH WIND       PRES   REMARKS
STURGEON BAY   CLEAR     25  16  68 S6        30.25S
MANITOWOC      CLOUDY    24  21  88 CALM      30.26R
SHEBOYGAN      MOCLDY    28  24  85 SE5       30.25R
$$

LMZ563-521-522-541>543-161200-
LAKESHORE

STATION/POSITION TIME  TEMP    WIND        PRES    VSBY  WAVE
                       AIR SEA DIR/SP/G                  HT/PER
                 (UTC) (F)     (DEG/KT/KT) (MB)    (MI)  (FT/S)
SHEBOYGAN LKSHOR 1100   33     150/ 15/ 16 1025.6R
KEWAUNEE LKSHORE 1100   27      CALM  /  1 1025.1R
NORTHPORT PIER   1100   28     150/  7/  9 1024.7R
SISTER BAY LKSHO 1100   22        CALM       N/A
MENOMINEE LKSHOR 1100   20      70/  1/  1 1024.9S
$$



USA.gov is the U.S. government's official web portal to all federal, state and local government web resources and services.